Showing default

QIANFAN-47, 62248

Orbit data source: Space-Track

QIANFAN-47, 62248 is a Chinese payload satellite in LEO that was launched on Thu, 05 Dec 2024 UTC via a CHANG ZHENG 6A launch vehicle from the Taiyaun Space Center, China (TSC). Payload-class satellites include a variety of spacecraft equipped with specific instruments for various scientific and technological missions. These include communications satellites like Starlink; space stations such as the ISS; scientific satellites like the Hubble; Earth observation satellites from companies like Planet Labs, Umbra, and HawkEye 360; GPS; miniature CubeSats for education and research; and military/defense satellites.

Loading next visibility...
Identifier
62248, 2024-232M
Orbit
LEO
Country
Flag of CNCN / PRC
Related business
Manufacturer
SECM
Mission
Operational Commercial Communications
Bus & Motor
QIANFAN, Unknown motor
Mass
267 kg wet, ~267 kg dry
Launch date (UTC)
2024-12-05 (11 months ago)
Launch vehicle
CHANG ZHENG 6A
Launch site
Taiyaun Space Center, China (TSC)
Object type
Payload
Rocket body
Debris
Shape & HBR
Box + 1 Pan, 5.0 m
Radar Cross Section
13.200 m², Large (>1 m²)

Expand to show TLE details & history
Last TLE update: 9 hours ago

TLE from 9 hours ago
0 QIANFAN-47
1 62248U 24232M   25309.93137290  .00000117  00000-0  16265-3 0  9990
2 62248  89.0041  44.9281 0013075 306.8337  53.1614 13.50970656 94274
Epoch: 2025-11-05T22:21Z
TLE epoch observation values (Epoch: 2025-11-05T22:21:10.618Z)
Latitude
-0.00006°
Longitude
24.23689°
Altitude
1,065.812 km
Speed
7.322 km/s
True Right ascension
02h 59m 42s
True Declination
0° 00' 00"
Sunlit
Object was in full shadow at epoch
Visualization orbit readout
Latitude
Unknown
Longitude
Unknown
Altitude
Unknown
Speed
Unknown
Apparent Right ascension
Unknown
Apparent Declination
Unknown
Sunlit
N/A
Visualization observer readout
Local Sidereal Time
03:15:55
Azimuth
Unknown
Elevation
Unknown
Doppler factor
Unknown
Orbital elements
Apogee altitude
1,075.473 km
Perigee altitude
1,056.008 km
Semi-major axis
7,443.877 km
Eccentricity
0.00131
Inclination
89.0041°
RAAN
44.9281°
Arg. of periapsis
306.8337°
True anomaly
53.28143°
Mean anomaly
53.1614°
Eccentric anomaly
53.2214°
Mean motion
3.37944 °/min
Orbital period
106.53 mins
BSTAR
0.00016265
Loading maneuver chart data...
Computing Atmospheric mass density...
Loading historical data...
Loading historical data...
Loading historical data...
Loading historical data...
Loading historical data...
Loading historical data...
Loading historical data...

Documentation

Showing up to 5 results
|